TimeCST,TemperatureF,Dew PointF,Humidity,Sea Level PressureIn,VisibilityMPH,Wind Direction,Wind SpeedMPH,Gust SpeedMPH,PrecipitationIn,Events,Conditions,WindDirDegrees,DateUTC
12:14 AM,24.8,17.6,74,30.04,10.0,Calm,Calm,-,N/A,,Clear,0,2013-02-17 06:14:00
12:35 AM,24.8,17.6,74,30.05,10.0,Calm,Calm,-,N/A,,Clear,0,2013-02-17 06:35:00
12:55 AM,23.0,17.6,80,30.05,10.0,Calm,Calm,-,N/A,,Clear,0,2013-02-17 06:55:00
1:14 AM,23.0,17.6,80,30.05,10.0,Calm,Calm,-,N/A,,Clear,0,2013-02-17 07:14:00
1:35 AM,23.0,17.6,80,30.04,10.0,Calm,Calm,-,N/A,,Clear,0,2013-02-17 07:35:00
1:55 AM,23.0,17.6,80,30.04,10.0,Calm,Calm,-,N/A,,Clear,0,2013-02-17 07:55:00
2:14 AM,23.0,17.6,80,30.04,10.0,Calm,Calm,-,N/A,,Clear,0,2013-02-17 08:14:00
2:35 AM,23.0,17.6,80,30.03,10.0,SE,9.2,-,N/A,,Clear,130,2013-02-17 08:35:00
2:55 AM,23.0,17.6,80,30.02,10.0,SE,9.2,-,N/A,,Clear,130,2013-02-17 08:55:00
3:14 AM,23.0,17.6,80,30.02,10.0,SE,10.4,-,N/A,,Clear,140,2013-02-17 09:14:00
3:35 AM,23.0,17.6,80,30.02,10.0,SE,9.2,-,N/A,,Clear,140,2013-02-17 09:35:00
3:55 AM,23.0,17.6,80,30.01,10.0,SE,10.4,-,N/A,,Clear,140,2013-02-17 09:55:00
4:14 AM,23.0,17.6,80,30.00,10.0,SE,10.4,-,N/A,,Clear,140,2013-02-17 10:14:00
4:35 AM,21.2,15.8,80,30.00,10.0,SE,9.2,-,N/A,,Clear,140,2013-02-17 10:35:00
4:55 AM,21.2,15.8,80,29.99,10.0,SE,9.2,-,N/A,,Clear,140,2013-02-17 10:55:00
5:15 AM,21.2,15.8,80,29.99,10.0,SE,10.4,-,N/A,,Clear,140,2013-02-17 11:15:00
5:34 AM,21.2,15.8,80,29.98,10.0,SE,10.4,-,N/A,,Clear,140,2013-02-17 11:34:00
5:55 AM,21.2,15.8,80,29.98,10.0,SE,10.4,-,N/A,,Clear,140,2013-02-17 11:55:00
6:15 AM,21.2,15.8,80,29.97,10.0,SE,11.5,-,N/A,,Clear,130,2013-02-17 12:15:00
6:34 AM,21.2,15.8,80,29.96,10.0,SE,9.2,-,N/A,,Clear,140,2013-02-17 12:34:00
6:55 AM,21.2,15.8,80,29.95,10.0,SE,11.5,-,N/A,,Clear,130,2013-02-17 12:55:00
7:15 AM,21.2,15.8,80,29.95,10.0,SE,11.5,-,N/A,,Clear,140,2013-02-17 13:15:00
7:34 AM,21.2,15.8,80,29.95,10.0,SE,11.5,-,N/A,,Clear,140,2013-02-17 13:34:00
7:55 AM,21.2,15.8,80,29.95,10.0,SE,10.4,-,N/A,,Clear,140,2013-02-17 13:55:00
8:15 AM,23.0,15.8,74,29.94,10.0,SE,11.5,-,N/A,,Clear,140,2013-02-17 14:15:00
8:35 AM,24.8,15.8,69,29.93,10.0,SE,15.0,18.4,N/A,,Clear,140,2013-02-17 14:35:00
8:55 AM,24.8,17.6,74,29.93,10.0,SSE,15.0,-,N/A,,Clear,150,2013-02-17 14:55:00
9:15 AM,26.6,17.6,69,29.92,10.0,SSE,17.3,-,N/A,,Clear,150,2013-02-17 15:15:00
9:35 AM,26.6,17.6,69,29.91,10.0,SSE,13.8,-,N/A,,Clear,150,2013-02-17 15:35:00
9:54 AM,28.4,19.4,69,29.90,10.0,SSE,16.1,-,N/A,,Clear,150,2013-02-17 15:54:00
10:14 AM,28.4,19.4,69,29.90,10.0,SSE,18.4,23.0,N/A,,Clear,150,2013-02-17 16:14:00
10:35 AM,30.2,19.4,64,29.89,10.0,SSE,19.6,25.3,N/A,,Clear,150,2013-02-17 16:35:00
11:15 AM,32.0,21.2,64,29.87,10.0,SSE,19.6,25.3,N/A,,Clear,150,2013-02-17 17:15:00
11:35 AM,33.8,21.2,60,29.86,10.0,SSE,16.1,24.2,N/A,,Clear,150,2013-02-17 17:35:00
11:54 AM,33.8,23.0,65,29.85,10.0,SE,18.4,21.9,N/A,,Clear,140,2013-02-17 17:54:00
12:15 PM,35.6,23.0,60,29.84,10.0,SSE,18.4,24.2,N/A,,Clear,150,2013-02-17 18:15:00
12:35 PM,35.6,23.0,60,29.82,10.0,SE,20.7,-,N/A,,Clear,140,2013-02-17 18:35:00
12:55 PM,35.6,24.8,65,29.81,10.0,SE,19.6,25.3,N/A,,Clear,140,2013-02-17 18:55:00
1:15 PM,37.4,24.8,60,29.80,10.0,SE,21.9,26.5,N/A,,Clear,140,2013-02-17 19:15:00
1:34 PM,37.4,24.8,60,29.78,10.0,SE,19.6,27.6,N/A,,Clear,140,2013-02-17 19:34:00
1:55 PM,37.4,24.8,60,29.76,10.0,SE,21.9,29.9,N/A,,Clear,140,2013-02-17 19:55:00
2:14 PM,37.4,24.8,60,29.75,10.0,SE,19.6,27.6,N/A,,Clear,140,2013-02-17 20:14:00
2:35 PM,37.4,26.6,65,29.74,10.0,SE,21.9,26.5,N/A,,Clear,140,2013-02-17 20:35:00
2:55 PM,39.2,26.6,61,29.73,10.0,SE,24.2,27.6,N/A,,Clear,140,2013-02-17 20:55:00
3:14 PM,39.2,26.6,61,29.73,10.0,SE,23.0,28.8,N/A,,Clear,140,2013-02-17 21:14:00
3:35 PM,39.2,26.6,61,29.71,10.0,SE,23.0,29.9,N/A,,Clear,140,2013-02-17 21:35:00
3:55 PM,39.2,28.4,65,29.70,10.0,SE,23.0,27.6,N/A,,Clear,140,2013-02-17 21:55:00
4:15 PM,39.2,26.6,61,29.69,10.0,SE,21.9,27.6,N/A,,Clear,140,2013-02-17 22:15:00
4:35 PM,39.2,28.4,65,29.68,10.0,SE,21.9,28.8,N/A,,Clear,130,2013-02-17 22:35:00
4:55 PM,37.4,28.4,70,29.67,10.0,SE,17.3,26.5,N/A,,Clear,130,2013-02-17 22:55:00
5:14 PM,37.4,26.6,65,29.67,10.0,SE,20.7,29.9,N/A,,Clear,140,2013-02-17 23:14:00
5:35 PM,37.4,26.6,65,29.65,10.0,SE,21.9,27.6,N/A,,Clear,130,2013-02-17 23:35:00
5:55 PM,37.4,26.6,65,29.66,10.0,SE,18.4,27.6,N/A,,Clear,130,2013-02-17 23:55:00
6:14 PM,37.4,26.6,65,29.64,10.0,SE,21.9,27.6,N/A,,Clear,130,2013-02-18 00:14:00
6:35 PM,37.4,26.6,65,29.65,10.0,SE,20.7,26.5,N/A,,Clear,140,2013-02-18 00:35:00
6:55 PM,37.4,26.6,65,29.64,10.0,SE,23.0,29.9,N/A,,Clear,140,2013-02-18 00:55:00
7:14 PM,37.4,26.6,65,29.63,10.0,SE,23.0,28.8,N/A,,Clear,140,2013-02-18 01:14:00
7:35 PM,37.4,26.6,65,29.62,10.0,SE,24.2,31.1,N/A,,Clear,140,2013-02-18 01:35:00
7:54 PM,37.4,26.6,65,29.62,10.0,SE,21.9,27.6,N/A,,Clear,140,2013-02-18 01:54:00
8:15 PM,37.4,26.6,65,29.61,10.0,SE,21.9,29.9,N/A,,Clear,140,2013-02-18 02:15:00
8:35 PM,37.4,26.6,65,29.60,10.0,SE,21.9,31.1,N/A,,Clear,140,2013-02-18 02:35:00
8:55 PM,37.4,26.6,65,29.60,10.0,SE,20.7,29.9,N/A,,Clear,140,2013-02-18 02:55:00
9:14 PM,37.4,26.6,65,29.59,10.0,SE,23.0,28.8,N/A,,Clear,140,2013-02-18 03:14:00
9:34 PM,37.4,26.6,65,29.59,10.0,SE,20.7,29.9,N/A,,Clear,140,2013-02-18 03:34:00
9:55 PM,37.4,26.6,65,29.58,10.0,SE,19.6,26.5,N/A,,Clear,140,2013-02-18 03:55:00
10:15 PM,37.4,26.6,65,29.58,10.0,SE,16.1,25.3,N/A,,Clear,140,2013-02-18 04:15:00
10:35 PM,37.4,26.6,65,29.58,10.0,SE,16.1,-,N/A,,Clear,140,2013-02-18 04:35:00
10:55 PM,37.4,26.6,65,29.58,10.0,SSE,13.8,25.3,N/A,,Clear,150,2013-02-18 04:55:00
11:15 PM,37.4,26.6,65,29.57,10.0,SSE,13.8,20.7,N/A,,Clear,150,2013-02-18 05:15:00
11:35 PM,37.4,26.6,65,29.57,10.0,SSE,11.5,16.1,N/A,,Clear,150,2013-02-18 05:35:00